Location: Brompton
(51.4000°N, 0.5333°E)
Time: 09:48:31
(UTC+00:00)

ERS-2 - Pass Details

Date: 11 May 2021
Orbit: 491 x 497 km, 98.5° (Epoch: 12 June)

Event Time Altitude Azimuth Distance (km) Brightness Sun altitude
Rises 20:17:11 0° 9° (N) 2,587 6.2 -5.9°
Reaches altitude 10° 20:19:21 10° 1° (N) 1,699 5.4 -6.2°
Maximum altitude 20:22:45 38° 293° (WNW) 764 3.8 -6.6°
Drops below altitude 10° 20:26:08 10° 224° (SW) 1,684 4.9 -7.0°
Sets 20:28:16 0° 216° (SW) 2,561 5.7 -7.3°
